Location: Unspecified
(0.0000°N, 0.0000°E)
Time: 19:34:05
(UTC+01:00)

Hubble Space Telescope - Visible Passes

Search period start: 23 February 2019 00:00
Search period end: 05 March 2019 00:00
Orbit: 537 x 540 km, 28.5° (Epoch: 22 February)

Date Brightness Start Highest point End Pass type
(mag) Time Alt. Az. Time Alt. Az. Time Alt. Az.
23 Feb 3.6 05:50:29 10° S 05:52:02 12° SSE 05:53:33 10° SE visible
23 Feb 3.2 21:06:36 10° WSW 21:09:16 17° SSW 21:09:53 16° SSW visible
24 Feb 3.4 05:39:02 10° S 05:41:37 16° SSE 05:44:13 10° ESE visible
24 Feb 3.6 20:57:10 10° SW 20:58:52 12° SSW 21:00:35 10° S visible
25 Feb 2.8 05:29:56 19° S 05:31:13 22° SSE 05:34:26 10° E visible
26 Feb 2.4 05:20:54 30° SSE 05:20:54 30° SSE 05:24:25 10° E visible
27 Feb 2.6 05:11:51 29° ESE 05:11:51 29° ESE 05:14:15 10° ENE visible
28 Feb 3.3 05:02:43 19° ENE 05:02:43 19° ENE 05:03:57 10° ENE visible
28 Feb 2.3 06:38:07 11° WNW 06:41:03 20° NNW 06:44:09 10° NNE visible
01 Mar 3.9 04:53:31 10° ENE 04:53:31 10° ENE 04:53:32 10° ENE visible
01 Mar 2.7 06:28:54 12° NW 06:30:37 15° NNW 06:33:04 10° N visible
02 Mar 2.9 06:19:35 11° NW 06:20:14 11° NNW 06:21:27 10° N visible
